• Em Portugal
  • Lista de países
  • Para 7 dias
  • Temperatura da água
  • Mapas de satélite
  • Mapa do tempo
  • Widgets de tempo
  • user-avatar
    Iniciar Sessão

    Previsão horária em Ajdyn

    Hoje, 23 Novembro, Quinta-feira

    Tempo Temperatura Precipitação Vento Pressão Humidade
    00:00 +9°C° 0 mm 1 m/s 763 mmHg 54%
    01:00 +9°C° 0 mm 1 m/s 763 mmHg 54%
    02:00 +9°C° 0 mm 1 m/s 763 mmHg 54%
    03:00 +8°C° 0 mm 2 m/s 763 mmHg 55%
    04:00 +8°C° 0 mm 2 m/s 763 mmHg 55%
    05:00 +8°C° 0 mm 2 m/s 763 mmHg 56%
    06:00 +8°C° 0 mm 2 m/s 763 mmHg 56%
    07:00 +9°C° 0 mm 2 m/s 763 mmHg 56%
    08:00 +9°C° 0 mm 2 m/s 763 mmHg 56%
    09:00 +12°C° 0 mm 2 m/s 763 mmHg 51%
    10:00 +15°C° 0 mm 2 m/s 763 mmHg 46%
    11:00 +18°C° 0 mm 1 m/s 763 mmHg 41%
    12:00 +18°C° 0 mm 2 m/s 763 mmHg 40%
    13:00 +18°C° 0 mm 2 m/s 763 mmHg 38%
    14:00 +19°C° 0 mm 2 m/s 763 mmHg 37%
    15:00 +17°C° 0 mm 2 m/s 763 mmHg 42%
    16:00 +16°C° 0 mm 2 m/s 763 mmHg 47%
    17:00 +14°C° 0 mm 2 m/s 762 mmHg 51%
    18:00 +14°C° 0 mm 2 m/s 763 mmHg 53%
    19:00 +13°C° 0 mm 2 m/s 763 mmHg 55%
    20:00 +13°C° 0 mm 2 m/s 763 mmHg 57%
    21:00 +12°C° 0 mm 2 m/s 763 mmHg 57%
    22:00 +12°C° 0 mm 2 m/s 763 mmHg 58%
    23:00 +12°C° 0 mm 2 m/s 764 mmHg 58%

    Amanhã, 24 Novembro, Sexta-feira

    Tempo Temperatura Precipitação Vento Pressão Humidade
    00:00 +10°C° 0 mm 2 m/s 764 mmHg 59%
    01:00 +10°C° 0 mm 2 m/s 764 mmHg 59%
    02:00 +10°C° 0 mm 2 m/s 764 mmHg 59%
    03:00 +10°C° 0 mm 2 m/s 763 mmHg 59%
    04:00 +9°C° 0 mm 2 m/s 763 mmHg 60%
    05:00 +9°C° 0 mm 2 m/s 763 mmHg 60%
    06:00 +10°C° 0 mm 2 m/s 763 mmHg 59%
    07:00 +10°C° 0 mm 2 m/s 763 mmHg 59%
    08:00 +10°C° 0 mm 2 m/s 763 mmHg 59%
    09:00 +14°C° 0 mm 2 m/s 763 mmHg 52%
    10:00 +16°C° 0 mm 2 m/s 763 mmHg 45%
    11:00 +19°C° 0 mm 1 m/s 763 mmHg 38%
    12:00 +20°C° 0 mm 1 m/s 763 mmHg 36%
    13:00 +21°C° 0 mm 1 m/s 763 mmHg 34%
    14:00 +22°C° 0 mm 1 m/s 762 mmHg 32%
    15:00 +20°C° 0 mm 1 m/s 762 mmHg 36%
    16:00 +18°C° 0 mm 1 m/s 762 mmHg 41%
    17:00 +16°C° 0 mm 1 m/s 762 mmHg 46%
    18:00 +15°C° 0 mm 1 m/s 763 mmHg 47%
    19:00 +14°C° 0 mm 1 m/s 763 mmHg 49%
    20:00 +14°C° 0 mm 1 m/s 763 mmHg 51%
    21:00 +13°C° 0 mm 1 m/s 763 mmHg 52%
    22:00 +13°C° 0 mm 1 m/s 763 mmHg 52%
    23:00 +12°C° 0 mm 1 m/s 764 mmHg 53%

    Depois de amanhã, 25 Novembro, Sábado

    Tempo Temperatura Precipitação Vento Pressão Humidade
    00:00 +12°C° 0 mm 1 m/s 763 mmHg 53%
    01:00 +12°C° 0 mm 1 m/s 763 mmHg 54%
    02:00 +12°C° 0 mm 1 m/s 763 mmHg 54%
    03:00 +12°C° 0 mm 1 m/s 763 mmHg 54%
    04:00 +12°C° 0 mm 1 m/s 763 mmHg 54%
    05:00 +12°C° 0 mm 1 m/s 763 mmHg 54%
    06:00 +12°C° 0 mm 1 m/s 763 mmHg 54%
    07:00 +12°C° 0 mm 1 m/s 763 mmHg 54%
    08:00 +13°C° 0 mm 1 m/s 763 mmHg 54%
    09:00 +15°C° 0 mm 1 m/s 763 mmHg 49%
    10:00 +18°C° 0 mm 1 m/s 763 mmHg 44%
    11:00 +20°C° 0 mm 1 m/s 763 mmHg 38%
    12:00 +20°C° 0 mm 1 m/s 763 mmHg 38%
    13:00 +20°C° 0 mm 1 m/s 763 mmHg 37%
    14:00 +21°C° 0 mm 1 m/s 762 mmHg 37%
    15:00 +19°C° 0 mm 1 m/s 762 mmHg 43%
    16:00 +18°C° 0 mm 1 m/s 762 mmHg 48%
    17:00 +15°C° 0 mm 1 m/s 762 mmHg 54%
    18:00 +15°C° 0 mm 1 m/s 763 mmHg 57%
    19:00 +14°C° 0 mm 1 m/s 763 mmHg 59%
    20:00 +14°C° 0 mm 1 m/s 763 mmHg 62%
    21:00 +13°C° 0 mm 1 m/s 763 mmHg 63%
    22:00 +13°C° 0 mm 1 m/s 763 mmHg 64%
    23:00 +13°C° 0 mm 1 m/s 763 mmHg 64%

    26 Novembro, Domingo

    Tempo Temperatura Precipitação Vento Pressão Humidade
    00:00 +13°C° 0 mm 1 m/s 763 mmHg 65%
    01:00 +12°C° 0 mm 1 m/s 763 mmHg 66%
    02:00 +12°C° 0 mm 1 m/s 763 mmHg 67%
    03:00 +12°C° 0 mm 1 m/s 763 mmHg 68%
    04:00 +12°C° 0 mm 1 m/s 763 mmHg 69%
    05:00 +12°C° 0 mm 1 m/s 762 mmHg 70%
    06:00 +12°C° 0 mm 2 m/s 763 mmHg 70%
    07:00 +12°C° 0 mm 2 m/s 763 mmHg 70%
    08:00 +12°C° 0 mm 2 m/s 763 mmHg 70%
    09:00 +15°C° 0 mm 1 m/s 763 mmHg 65%
    10:00 +18°C° 0 mm 1 m/s 763 mmHg 60%
    11:00 +20°C° 0 mm 1 m/s 763 mmHg 54%
    12:00 +20°C° 0 mm 1 m/s 762 mmHg 55%
    13:00 +19°C° 0 mm 2 m/s 762 mmHg 55%
    14:00 +20°C° 0 mm 2 m/s 762 mmHg 55%
    15:00 +18°C° 0 mm 2 m/s 761 mmHg 62%
    16:00 +17°C° 0 mm 2 m/s 761 mmHg 69%
    17:00 +16°C° 0 mm 2 m/s 761 mmHg 76%
    18:00 +15°C° 0 mm 2 m/s 762 mmHg 80%
    19:00 +15°C° 0 mm 2 m/s 762 mmHg 84%
    20:00 +14°C° 0 mm 2 m/s 762 mmHg 87%
    21:00 +14°C° 0 mm 2 m/s 762 mmHg 88%
    22:00 +14°C° 0 mm 2 m/s 762 mmHg 89%
    23:00 +13°C° 0 mm 2 m/s 762 mmHg 90%

    27 Novembro, Segunda-feira

    Tempo Temperatura Precipitação Vento Pressão Humidade
    00:00 +12°C° 0,1 mm 3 m/s 762 mmHg 90%
    01:00 +12°C° 0,1 mm 3 m/s 761 mmHg 90%
    02:00 +12°C° 0,1 mm 3 m/s 761 mmHg 89%
    03:00 +12°C° 0,1 mm 3 m/s 761 mmHg 89%
    04:00 +12°C° 0,1 mm 3 m/s 760 mmHg 89%
    05:00 +12°C° 0,1 mm 3 m/s 760 mmHg 89%
    06:00 +12°C° 0,1 mm 3 m/s 760 mmHg 88%
    07:00 +13°C° 0,1 mm 3 m/s 760 mmHg 88%
    08:00 +13°C° 0,1 mm 3 m/s 760 mmHg 87%
    09:00 +14°C° 0,6 mm 4 m/s 760 mmHg 82%
    10:00 +15°C° 0,6 mm 4 m/s 760 mmHg 76%
    11:00 +16°C° 0,6 mm 5 m/s 760 mmHg 71%
    12:00 +17°C° 1,5 mm 4 m/s 759 mmHg 75%
    13:00 +15°C° 1,5 mm 4 m/s 758 mmHg 80%
    14:00 +15°C° 1,5 mm 4 m/s 758 mmHg 84%
    15:00 +14°C° 0,8 mm 4 m/s 758 mmHg 86%
    16:00 +14°C° 0,8 mm 4 m/s 757 mmHg 88%
    17:00 +14°C° 0,8 mm 4 m/s 757 mmHg 90%
    18:00 +14°C° 0,5 mm 3 m/s 757 mmHg 90%
    19:00 +13°C° 0,5 mm 3 m/s 757 mmHg 90%
    20:00 +13°C° 0,5 mm 3 m/s 757 mmHg 90%
    21:00 +13°C° 0,2 mm 3 m/s 758 mmHg 90%
    22:00 +13°C° 0,2 mm 3 m/s 758 mmHg 91%
    23:00 +14°C° 0,2 mm 2 m/s 758 mmHg 91%

    28 Novembro, Terça-feira

    Tempo Temperatura Precipitação Vento Pressão Humidade
    00:00 +13°C° 0,1 mm 2 m/s 758 mmHg 91%
    01:00 +13°C° 0,1 mm 2 m/s 758 mmHg 92%
    02:00 +13°C° 0,1 mm 2 m/s 758 mmHg 92%
    03:00 +13°C° 0,1 mm 2 m/s 758 mmHg 92%
    04:00 +13°C° 0,1 mm 2 m/s 758 mmHg 92%
    05:00 +12°C° 0,1 mm 2 m/s 758 mmHg 92%
    06:00 +13°C° 0,1 mm 2 m/s 758 mmHg 92%
    07:00 +13°C° 0,1 mm 1 m/s 758 mmHg 92%
    08:00 +13°C° 0,1 mm 1 m/s 759 mmHg 91%
    09:00 +14°C° 0,1 mm 2 m/s 759 mmHg 85%
    10:00 +16°C° 0,1 mm 2 m/s 759 mmHg 78%
    11:00 +17°C° 0,1 mm 2 m/s 759 mmHg 71%
    12:00 +17°C° 0 mm 2 m/s 759 mmHg 67%
    13:00 +18°C° 0 mm 2 m/s 759 mmHg 62%
    14:00 +18°C° 0 mm 3 m/s 759 mmHg 58%
    15:00 +17°C° 0 mm 3 m/s 759 mmHg 64%
    16:00 +14°C° 0 mm 3 m/s 759 mmHg 69%
    17:00 +13°C° 0 mm 3 m/s 759 mmHg 75%
    18:00 +12°C° 0 mm 3 m/s 760 mmHg 78%
    19:00 +12°C° 0 mm 3 m/s 760 mmHg 81%
    20:00 +12°C° 0 mm 2 m/s 760 mmHg 84%
    21:00 +12°C° 0 mm 2 m/s 761 mmHg 85%
    22:00 +10°C° 0 mm 2 m/s 761 mmHg 86%
    23:00 +10°C° 0 mm 2 m/s 761 mmHg 87%
    Mostrar mais